FW8496 Weather Reports


time (UTC)temp
C
wind
direction
speed
KPH
gust
KPH
rain 1hr
cm
rain 24hr
cm
rain mn
cm
humidity
%
barometer
mb
20210518201639 9 206 9.7 20.9 0.00 0.20 0.00 73 1014.4
20210518200151 10 200 9.7 24.1 0.00 0.20 0.00 69 1014.3
20210518194614 10 198 16.1 25.7 0.00 0.20 0.00 70 1014.4
20210518193152 9 222 12.9 25.7 0.00 0.20 0.00 71 1014.5
20210518191624 10 210 11.3 32.2 0.00 0.20 0.00 71 1014.6
20210518190207 10 175 12.9 25.7 0.00 0.20 0.00 73 1014.8
20210518184654 8 244 11.3 24.1 0.00 0.20 0.00 76 1015.0
20210518183113 8 277 14.5 27.4 0.00 0.20 0.00 78 1015.1
20210518181644 8 235 11.3 20.9 0.00 0.20 0.00 79 1015.3
20210518180136 9 248 17.7 38.6 0.00 0.20 0.00 66 1015.0
20210518174628 11 229 9.7 25.7 0.00 0.20 0.00 53 1014.6
20210518173043 11 252 9.7 19.3 0.00 0.20 0.00 51 1014.5
20210518171625 11 223 12.9 29.0 0.00 0.20 0.00 50 1014.4
20210518170141 11 281 9.7 22.5 0.00 0.20 0.00 50 1014.6
20210518164632 11 160 11.3 22.5 0.00 0.20 0.00 51 1014.6
20210518163108 11 191 9.7 19.3 0.00 0.20 0.00 51 1014.4
20210518161559 11 130 8.0 17.7 0.00 0.20 0.00 54 1014.3
20210518160135 11 157 8.0 20.9 0.00 0.20 0.00 57 1014.6
20210518154630 10 164 8.0 19.3 0.00 0.20 0.00 62 1014.7
20210518153125 10 194 6.4 12.9 0.00 0.20 0.00 62 1014.8
20210518151644 10 0 1.6 16.1 0.00 0.20 0.00 65 1014.9
20210518150122 10 136 3.2 11.3 0.00 0.20 0.00 67 1014.8
20210518144631 8 176 0.0 4.8 0.00 0.20 0.00 71 1014.8
20210518143151 8 0 0.0 3.2 0.00 0.20 0.00 72 1014.9
20210518141606 8 321 3.2 8.0 0.00 0.20 0.00 72 1014.8
20210518140143 8 205 1.6 4.8 0.00 0.20 0.00 72 1014.7
20210518134712 7 175 1.6 6.4 0.00 0.20 0.00 75 1014.6
20210518133054 7 262 1.6 4.8 0.00 0.20 0.00 78 1014.6
20210518131649 6 298 1.6 6.4 0.00 0.20 0.00 83 1014.5
20210518130111 6 298 3.2 17.7 0.00 0.20 0.00 83 1014.2
20210518124719 6 267 3.2 11.3 0.00 0.20 0.00 82 1014.2
20210518123114 6 296 4.8 11.3 0.00 0.20 0.00 81 1013.9
20210518121633 6 285 4.8 20.9 0.00 0.20 0.00 84 1013.8
20210518120054 6 176 4.8 11.3 0.00 0.20 0.00 84 1013.7
20210518114637 5 125 3.2 11.3 0.00 0.20 0.00 85 1013.6
20210518113133 6 172 6.4 14.5 0.00 0.20 0.00 85 1014.1
20210518111712 6 103 0.0 11.3 0.00 0.20 0.00 85 1013.9
20210518110113 6 87 6.4 12.9 0.00 0.20 0.00 83 1014.0
20210518104642 6 344 3.2 16.1 0.00 0.20 0.00 82 1014.3
20210518103123 6 316 11.3 19.3 0.00 0.20 0.00 81 1013.9
20210518101658 7 9 9.7 27.4 0.00 0.20 0.00 77 1013.7
20210518100155 7 65 8.0 14.5 0.00 0.20 0.00 68 1013.6
20210518094559 6 53 9.7 16.1 0.00 0.20 0.00 81 1013.6
20210518093138 6 15 9.7 19.3 0.00 0.20 0.00 84 1013.7
20210518091629 5 16 9.7 16.1 0.00 0.20 0.00 86 1013.9
20210518090136 5 38 8.0 16.1 0.00 0.20 0.00 86 1014.0
20210518084743 5 13 11.3 17.7 0.00 0.20 0.00 87 1014.2
20210518083059 5 352 9.7 16.1 0.00 0.20 0.00 87 1014.2
20210518081556 5 15 8.0 14.5 0.00 0.20 0.00 88 1014.3
20210518080119 5 16 9.7 16.1 0.00 0.20 0.00 88 1014.6
20210518074638 5 46 9.7 16.1 0.00 0.20 0.00 89 1014.6
20210518073129 5 9 8.0 16.1 0.00 0.20 0.00 90 1015.1
20210518071616 5 31 6.4 17.7 0.00 0.20 0.00 91 1015.3
20210518070120 5 38 8.0 17.7 0.00 0.20 0.00 91 1015.5
20210518064557 5 360 6.4 16.1 0.00 0.20 0.00 90 1015.5
20210518063234 5 26 8.0 16.1 0.00 0.20 0.00 89 1015.6
20210518061621 5 5 9.7 19.3 0.00 0.20 0.00 89 1015.7
20210518060204 5 349 9.7 20.9 0.00 0.20 0.00 89 1015.6
20210518054641 5 44 9.7 17.7 0.00 0.20 0.20 89 1015.7
20210518053130 5 352 11.3 22.5 0.00 0.20 0.20 89 1015.8
20210518051639 5 332 11.3 19.3 0.00 0.20 0.20 88 1015.8
20210518050112 5 5 9.7 19.3 0.00 0.20 0.20 87 1015.9
20210518044644 5 48 12.9 22.5 0.00 0.20 0.20 88 1015.5
20210518043129 5 19 11.3 27.4 0.00 0.20 0.20 88 1015.3
20210518041730 5 34 17.7 33.8 0.00 0.20 0.20 87 1014.9
20210518040145 6 5 17.7 37.0 0.00 0.20 0.20 86 1014.6
20210518034559 6 331 17.7 33.8 0.00 0.20 0.20 87 1015.0
20210518033151 6 340 16.1 27.4 0.00 0.20 0.20 88 1015.1
20210518031644 6 352 12.9 25.7 0.03 0.20 0.20 87 1014.9
20210518030107 6 352 16.1 29.0 0.03 0.20 0.20 87 1014.8
20210518024645 6 313 16.1 24.1 0.03 0.20 0.20 86 1015.4
20210518023118 6 5 14.5 20.9 0.03 0.20 0.20 85 1015.2
20210518021703 6 360 14.5 24.1 0.00 0.18 0.18 86 1015.2
20210518020116 6 337 12.9 29.0 0.00 0.18 0.18 85 1015.1
20210518014603 6 24 16.1 32.2 0.00 0.18 0.18 84 1014.6
20210518013145 6 360 12.9 22.5 0.00 0.18 0.18 83 1014.4
20210518011606 6 345 14.5 25.7 0.00 0.18 0.18 82 1014.2
20210518010213 7 329 12.9 22.5 0.00 0.18 0.18 82 1014.2
20210518004642 7 329 12.9 20.9 0.00 0.18 0.18 80 1014.8
20210518003156 7 342 11.3 19.3 0.00 0.18 0.18 78 1015.1
20210518001621 7 350 11.3 24.1 0.00 0.18 0.18 78 1015.0
20210518000121 7 341 14.5 24.1 0.00 0.18 0.18 81 1014.4
20210517234641 7 13 14.5 27.4 0.00 0.18 0.18 78 1014.6
20210517233126 8 319 12.9 25.7 0.00 0.18 0.18 74 1014.8
20210517231651 8 84 14.5 27.4 0.00 0.18 0.18 72 1014.2
20210517230114 7 17 12.9 29.0 0.00 0.18 0.18 75 1014.4
20210517224615 7 56 17.7 35.4 0.00 0.18 0.18 77 1014.6
20210517223211 7 63 19.3 33.8 0.00 0.18 0.18 79 1015.0
20210517221958 7 40 16.1 29.0 0.00 0.18 0.18 83 1015.7
20210517220117 7 340 20.9 38.6 0.03 0.18 0.18 84 1016.0
20210517214608 7 316 12.9 29.0 0.08 0.18 0.18 81 1016.4
20210517213135 7 77 17.7 29.0 0.10 0.18 0.18 83 1016.2
20210517211621 7 81 17.7 25.7 0.15 0.18 0.18 81 1016.0
20210517210156 8 97 3.2 6.4 0.15 0.15 0.15 81 1016.6
20210517204559 8 61 3.2 22.5 0.08 0.08 0.08 74 1016.4
20210517203217 9 296 14.5 27.4 0.05 0.05 0.05 71 1015.5